Time,TemperatureF,DewpointF,PressureIn,WindDirection,WindDirectionDegrees,WindSpeedMPH,WindSpeedGustMPH,Humidity,HourlyPrecipIn,Conditions,Clouds,dailyrainin,SoftwareType,DateUTC
2013-06-30 00:02:00,66.0,63.0,29.90,NNE,18,2.0,-999.0,88,-99.99,,,-99.99,,2013-06-30 05:02:00,
2013-06-30 00:12:00,66.0,63.0,29.91,ENE,64,1.0,-999.0,88,-99.99,,,-99.99,,2013-06-30 05:12:00,
2013-06-30 00:22:00,66.0,63.0,29.91,North,0,3.0,-999.0,88,-99.99,,,-99.99,,2013-06-30 05:22:00,
2013-06-30 00:33:00,66.0,63.0,29.91,North,350,3.0,-999.0,88,-99.99,,,-99.99,,2013-06-30 05:33:00,
2013-06-30 00:43:00,66.0,63.0,29.91,NNE,16,2.0,-999.0,88,-99.99,,,-99.99,,2013-06-30 05:43:00,
2013-06-30 00:53:00,66.0,63.0,29.91,NE,47,2.0,-999.0,88,-99.99,,,-99.99,,2013-06-30 05:53:00,
2013-06-30 01:02:00,66.0,63.0,29.91,North,9,3.0,-999.0,88,-99.99,,,-99.99,,2013-06-30 06:02:00,
2013-06-30 01:12:00,66.0,63.0,29.91,NE,40,1.0,-999.0,88,-99.99,,,-99.99,,2013-06-30 06:12:00,
2013-06-30 01:23:00,66.0,63.0,29.91,NNE,29,2.0,-999.0,88,-99.99,,,-99.99,,2013-06-30 06:23:00,
2013-06-30 01:34:00,66.0,63.0,29.91,NNE,13,1.0,-999.0,88,-99.99,,,-99.99,,2013-06-30 06:34:00,
2013-06-30 01:43:00,66.0,63.0,29.91,NNW,347,2.0,-999.0,88,-99.99,,,-99.99,,2013-06-30 06:43:00,
2013-06-30 01:53:00,66.0,63.0,29.91,NNW,337,5.0,-999.0,88,-99.99,,,-99.99,,2013-06-30 06:53:00,
2013-06-30 02:02:00,66.0,63.0,29.91,North,356,2.0,-999.0,88,-99.99,,,-99.99,,2013-06-30 07:02:00,
2013-06-30 02:12:00,66.0,63.0,29.91,North,7,3.0,-999.0,88,-99.99,,,-99.99,,2013-06-30 07:12:00,
2013-06-30 02:22:00,66.0,63.0,29.91,North,352,3.0,-999.0,88,-99.99,,,-99.99,,2013-06-30 07:22:00,
2013-06-30 02:33:00,66.0,63.0,29.91,NNE,28,2.0,-999.0,88,-99.99,,,-99.99,,2013-06-30 07:33:00,
2013-06-30 02:44:00,66.0,63.0,29.91,NNE,14,3.0,-999.0,88,-99.99,,,-99.99,,2013-06-30 07:44:00,
2013-06-30 02:53:00,66.0,63.0,29.91,North,351,3.0,-999.0,88,-99.99,,,-99.99,,2013-06-30 07:53:00,
2013-06-30 03:02:00,66.0,63.0,29.91,NNE,27,2.0,-999.0,88,-99.99,,,-99.99,,2013-06-30 08:02:00,
2013-06-30 03:12:00,66.0,63.0,29.91,NNE,32,2.0,-999.0,88,-99.99,,,-99.99,,2013-06-30 08:12:00,
2013-06-30 03:22:00,66.0,63.0,29.91,NNE,15,3.0,-999.0,88,-99.99,,,-99.99,,2013-06-30 08:22:00,
2013-06-30 03:33:00,66.0,63.0,29.91,NNW,339,1.0,-999.0,88,-99.99,,,-99.99,,2013-06-30 08:33:00,
2013-06-30 03:42:00,66.0,63.0,29.92,NNE,26,1.0,-999.0,88,-99.99,,,-99.99,,2013-06-30 08:42:00,
2013-06-30 03:53:00,66.0,63.0,29.91,NE,42,1.0,-999.0,88,-99.99,,,-99.99,,2013-06-30 08:53:00,
2013-06-30 04:01:00,66.0,63.0,29.91,NE,40,2.0,-999.0,88,-99.99,,,-99.99,,2013-06-30 09:01:00,
2013-06-30 04:12:00,66.0,63.0,29.92,NE,49,1.0,-999.0,88,-99.99,,,-99.99,,2013-06-30 09:12:00,
2013-06-30 04:23:00,66.0,63.0,29.93,NNE,27,1.0,-999.0,88,-99.99,,,-99.99,,2013-06-30 09:23:00,
2013-06-30 04:33:00,64.0,61.0,29.93,NNW,346,1.0,-999.0,88,-99.99,,,-99.99,,2013-06-30 09:33:00,
2013-06-30 04:43:00,64.0,61.0,29.94,WNW,298,1.0,-999.0,88,-99.99,,,-99.99,,2013-06-30 09:43:00,
2013-06-30 04:53:00,64.0,61.0,29.94,NNW,341,2.0,-999.0,88,-99.99,,,-99.99,,2013-06-30 09:53:00,
2013-06-30 05:02:00,64.0,61.0,29.94,North,5,3.0,-999.0,88,-99.99,,,-99.99,,2013-06-30 10:02:00,
2013-06-30 05:11:00,64.0,61.0,29.94,ENE,69,1.0,-999.0,88,-99.99,,,-99.99,,2013-06-30 10:11:00,
2013-06-30 05:22:00,64.0,61.0,29.94,NNE,26,2.0,-999.0,88,-99.99,,,-99.99,,2013-06-30 10:22:00,
2013-06-30 05:33:00,64.0,61.0,29.95,North,354,2.0,-999.0,88,-99.99,,,-99.99,,2013-06-30 10:33:00,
2013-06-30 05:42:00,64.0,61.0,29.95,NNE,31,1.0,-999.0,88,-99.99,,,-99.99,,2013-06-30 10:42:00,
2013-06-30 05:53:00,64.0,61.0,29.94,NE,53,1.0,-999.0,88,-99.99,,,-99.99,,2013-06-30 10:53:00,
2013-06-30 06:02:00,64.0,61.0,29.95,North,11,2.0,-999.0,88,-99.99,,,-99.99,,2013-06-30 11:02:00,
2013-06-30 06:11:00,64.0,61.0,29.95,NNE,32,2.0,-999.0,88,-99.99,,,-99.99,,2013-06-30 11:11:00,
2013-06-30 06:22:00,64.0,61.0,29.95,ENE,71,1.0,-999.0,88,-99.99,,,-99.99,,2013-06-30 11:22:00,
2013-06-30 06:33:00,64.0,61.0,29.96,North,4,2.0,-999.0,88,-99.99,,,-99.99,,2013-06-30 11:33:00,
2013-06-30 06:43:00,64.0,61.0,29.96,NNE,31,2.0,-999.0,88,-99.99,,,-99.99,,2013-06-30 11:43:00,
2013-06-30 06:53:00,64.0,61.0,29.97,NNW,328,3.0,-999.0,88,-99.99,,,-99.99,,2013-06-30 11:53:00,
2013-06-30 07:02:00,66.0,63.0,29.97,North,6,3.0,-999.0,88,-99.99,,,-99.99,,2013-06-30 12:02:00,
2013-06-30 07:11:00,66.0,63.0,29.97,North,359,3.0,-999.0,88,-99.99,,,-99.99,,2013-06-30 12:11:00,
2013-06-30 07:24:00,66.0,63.0,29.98,NNW,345,2.0,-999.0,88,-99.99,,,-99.99,,2013-06-30 12:24:00,
2013-06-30 07:33:00,66.0,63.0,29.98,North,356,5.0,-999.0,88,-99.99,,,-99.99,,2013-06-30 12:33:00,
2013-06-30 07:43:00,66.0,63.0,29.98,NNE,13,3.0,-999.0,88,-99.99,,,-99.99,,2013-06-30 12:43:00,
2013-06-30 07:52:00,66.0,63.0,29.98,NNE,22,5.0,-999.0,88,-99.99,,,-99.99,,2013-06-30 12:52:00,
2013-06-30 08:02:00,68.0,63.0,29.99,NNE,16,7.0,-999.0,82,-99.99,,,-99.99,,2013-06-30 13:02:00,
2013-06-30 08:12:00,68.0,63.0,29.99,North,359,3.0,-999.0,82,-99.99,,,-99.99,,2013-06-30 13:12:00,
2013-06-30 08:22:00,70.0,63.0,29.99,North,6,6.0,-999.0,77,-99.99,,,-99.99,,2013-06-30 13:22:00,
2013-06-30 08:34:00,70.0,63.0,29.99,NNE,13,6.0,-999.0,77,-99.99,,,-99.99,,2013-06-30 13:34:00,
2013-06-30 08:43:00,70.0,61.0,30.00,NNE,22,8.0,-999.0,73,-99.99,,,-99.99,,2013-06-30 13:43:00,
2013-06-30 08:53:00,70.0,61.0,30.00,NNE,25,7.0,-999.0,73,-99.99,,,-99.99,,2013-06-30 13:53:00,
2013-06-30 09:02:00,70.0,61.0,30.00,North,7,7.0,-999.0,73,-99.99,,,-99.99,,2013-06-30 14:02:00,
2013-06-30 09:11:00,70.0,61.0,30.00,North,8,3.0,-999.0,73,-99.99,,,-99.99,,2013-06-30 14:11:00,
2013-06-30 09:22:00,72.0,61.0,30.00,NNE,27,5.0,-999.0,68,-99.99,,,-99.99,,2013-06-30 14:22:00,
2013-06-30 09:33:00,72.0,61.0,30.01,NNE,24,7.0,-999.0,68,-99.99,,,-99.99,,2013-06-30 14:33:00,
2013-06-30 09:44:00,72.0,61.0,30.01,NE,53,5.0,-999.0,68,-99.99,,,-99.99,,2013-06-30 14:44:00,
2013-06-30 09:52:00,72.0,61.0,30.01,NNE,19,6.0,-999.0,68,-99.99,,,-99.99,,2013-06-30 14:52:00,
2013-06-30 10:02:00,72.0,61.0,30.01,NNE,29,5.0,-999.0,68,-99.99,,,-99.99,,2013-06-30 15:02:00,
2013-06-30 10:12:00,73.0,61.0,30.01,NE,55,5.0,-999.0,64,-99.99,,,-99.99,,2013-06-30 15:12:00,
2013-06-30 10:23:00,73.0,61.0,30.01,NNE,24,8.0,-999.0,64,-99.99,,,-99.99,,2013-06-30 15:23:00,
2013-06-30 10:34:00,73.0,61.0,30.01,NNE,31,7.0,-999.0,64,-99.99,,,-99.99,,2013-06-30 15:34:00,
2013-06-30 10:44:00,73.0,59.0,30.01,NNE,25,7.0,-999.0,60,-99.99,,,-99.99,,2013-06-30 15:44:00,
2013-06-30 10:53:00,73.0,61.0,30.01,NNE,18,5.0,-999.0,64,-99.99,,,-99.99,,2013-06-30 15:53:00,
2013-06-30 11:01:00,73.0,61.0,30.01,ENE,58,2.0,-999.0,64,-99.99,,,-99.99,,2013-06-30 16:01:00,
2013-06-30 11:11:00,73.0,61.0,30.01,North,8,3.0,-999.0,64,-99.99,,,-99.99,,2013-06-30 16:11:00,
2013-06-30 11:21:00,73.0,61.0,30.02,NNE,17,7.0,-999.0,64,-99.99,,,-99.99,,2013-06-30 16:21:00,
2013-06-30 11:34:00,73.0,61.0,30.02,NE,41,7.0,-999.0,64,-99.99,,,-99.99,,2013-06-30 16:34:00,
2013-06-30 11:44:00,73.0,61.0,30.02,NNE,25,6.0,-999.0,64,-99.99,,,-99.99,,2013-06-30 16:44:00,
2013-06-30 11:53:00,73.0,61.0,30.03,North,8,6.0,-999.0,64,-99.99,,,-99.99,,2013-06-30 16:53:00,
2013-06-30 12:02:00,73.0,61.0,30.03,NE,46,6.0,-999.0,64,-99.99,,,-99.99,,2013-06-30 17:02:00,
2013-06-30 12:11:00,73.0,61.0,30.03,NE,42,3.0,-999.0,64,-99.99,,,-99.99,,2013-06-30 17:11:00,
2013-06-30 12:23:00,73.0,61.0,30.03,NNW,345,6.0,-999.0,64,-99.99,,,-99.99,,2013-06-30 17:23:00,
2013-06-30 12:34:00,73.0,61.0,30.02,NE,40,6.0,-999.0,64,-99.99,,,-99.99,,2013-06-30 17:34:00,
2013-06-30 12:43:00,75.0,63.0,30.02,NE,43,3.0,-999.0,64,-99.99,,,-99.99,,2013-06-30 17:43:00,
2013-06-30 12:52:00,75.0,63.0,30.02,ENE,62,5.0,-999.0,64,-99.99,,,-99.99,,2013-06-30 17:52:00,
2013-06-30 13:12:00,75.0,61.0,30.02,NNE,32,6.0,-999.0,60,-99.99,,,-99.99,,2013-06-30 18:12:00,
2013-06-30 13:22:00,75.0,61.0,30.02,NNE,12,8.0,-999.0,60,-99.99,,,-99.99,,2013-06-30 18:22:00,
2013-06-30 13:34:00,75.0,61.0,30.02,NNE,27,6.0,-999.0,60,-99.99,,,-99.99,,2013-06-30 18:34:00,
2013-06-30 13:43:00,77.0,63.0,30.02,NE,41,6.0,-999.0,61,-99.99,,,-99.99,,2013-06-30 18:43:00,
2013-06-30 13:53:00,77.0,63.0,30.02,NNE,23,9.0,-999.0,61,-99.99,,,-99.99,,2013-06-30 18:53:00,
2013-06-30 14:01:00,75.0,61.0,30.02,NNE,27,8.0,-999.0,60,-99.99,,,-99.99,,2013-06-30 19:01:00,
2013-06-30 14:11:00,75.0,61.0,30.03,NE,35,5.0,-999.0,60,-99.99,,,-99.99,,2013-06-30 19:11:00,
2013-06-30 14:22:00,75.0,61.0,30.03,NNE,14,7.0,-999.0,60,-99.99,,,-99.99,,2013-06-30 19:22:00,
2013-06-30 14:33:00,75.0,61.0,30.03,NE,34,7.0,-999.0,60,-99.99,,,-99.99,,2013-06-30 19:33:00,
2013-06-30 14:43:00,77.0,61.0,30.03,NNE,31,8.0,-999.0,57,-99.99,,,-99.99,,2013-06-30 19:43:00,
2013-06-30 14:53:00,77.0,61.0,30.03,NE,46,6.0,-999.0,57,-99.99,,,-99.99,,2013-06-30 19:53:00,
2013-06-30 15:02:00,77.0,61.0,30.03,NNE,16,7.0,-999.0,57,-99.99,,,-99.99,,2013-06-30 20:02:00,
2013-06-30 15:11:00,77.0,61.0,30.03,NNE,23,5.0,-999.0,57,-99.99,,,-99.99,,2013-06-30 20:11:00,
2013-06-30 15:22:00,77.0,63.0,30.03,North,1,2.0,-999.0,61,-99.99,,,-99.99,,2013-06-30 20:22:00,
2013-06-30 15:34:00,77.0,61.0,30.03,NNE,20,8.0,-999.0,57,-99.99,,,-99.99,,2013-06-30 20:34:00,
2013-06-30 15:42:00,79.0,63.0,30.03,North,5,3.0,-999.0,57,-99.99,,,-99.99,,2013-06-30 20:42:00,
2013-06-30 15:52:00,79.0,61.0,30.03,NE,40,7.0,-999.0,54,-99.99,,,-99.99,,2013-06-30 20:52:00,
2013-06-30 16:01:00,79.0,61.0,30.03,North,351,7.0,-999.0,54,-99.99,,,-99.99,,2013-06-30 21:01:00,
2013-06-30 16:11:00,79.0,61.0,30.03,North,10,7.0,-999.0,54,-99.99,,,-99.99,,2013-06-30 21:11:00,
2013-06-30 16:22:00,79.0,61.0,30.03,NNE,25,8.0,-999.0,54,-99.99,,,-99.99,,2013-06-30 21:22:00,
2013-06-30 16:34:00,79.0,61.0,30.03,North,3,6.0,-999.0,54,-99.99,,,-99.99,,2013-06-30 21:34:00,
2013-06-30 16:43:00,79.0,61.0,30.03,NNE,22,5.0,-999.0,54,-99.99,,,-99.99,,2013-06-30 21:43:00,
2013-06-30 16:53:00,79.0,61.0,30.03,NNE,20,1.0,-999.0,54,-99.99,,,-99.99,,2013-06-30 21:53:00,
2013-06-30 17:01:00,79.0,61.0,30.03,NE,37,3.0,-999.0,54,-99.99,,,-99.99,,2013-06-30 22:01:00,
2013-06-30 17:11:00,79.0,61.0,30.03,NE,34,3.0,-999.0,54,-99.99,,,-99.99,,2013-06-30 22:11:00,
2013-06-30 17:22:00,79.0,57.0,30.03,NNE,18,7.0,-999.0,47,-99.99,,,-99.99,,2013-06-30 22:22:00,
2013-06-30 17:34:00,79.0,55.0,30.03,NE,50,8.0,-999.0,44,-99.99,,,-99.99,,2013-06-30 22:34:00,
2013-06-30 17:43:00,79.0,55.0,30.03,ENE,74,3.0,-999.0,44,-99.99,,,-99.99,,2013-06-30 22:43:00,
2013-06-30 17:53:00,81.0,57.0,30.03,North,6,5.0,-999.0,44,-99.99,,,-99.99,,2013-06-30 22:53:00,
2013-06-30 18:01:00,81.0,57.0,30.03,NNE,26,5.0,-999.0,44,-99.99,,,-99.99,,2013-06-30 23:01:00,
2013-06-30 18:11:00,81.0,57.0,30.03,NNE,26,5.0,-999.0,44,-99.99,,,-99.99,,2013-06-30 23:11:00,
2013-06-30 18:22:00,81.0,57.0,30.03,ENE,60,7.0,-999.0,44,-99.99,,,-99.99,,2013-06-30 23:22:00,
2013-06-30 18:33:00,79.0,55.0,30.04,NE,39,3.0,-999.0,44,-99.99,,,-99.99,,2013-06-30 23:33:00,
2013-06-30 18:43:00,79.0,57.0,30.04,NNE,27,5.0,-999.0,47,-99.99,,,-99.99,,2013-06-30 23:43:00,
2013-06-30 18:53:00,79.0,57.0,30.04,NE,49,9.0,-999.0,47,-99.99,,,-99.99,,2013-06-30 23:53:00,
2013-06-30 19:01:00,79.0,57.0,30.04,NNE,25,5.0,-999.0,47,-99.99,,,-99.99,,2013-07-01 00:01:00,
2013-06-30 19:11:00,79.0,57.0,30.04,NNE,17,6.0,-999.0,47,-99.99,,,-99.99,,2013-07-01 00:11:00,
2013-06-30 19:22:00,79.0,57.0,30.04,NNE,15,5.0,-999.0,47,-99.99,,,-99.99,,2013-07-01 00:22:00,
2013-06-30 19:33:00,79.0,57.0,30.04,ENE,62,1.0,-999.0,47,-99.99,,,-99.99,,2013-07-01 00:33:00,
2013-06-30 19:42:00,79.0,57.0,30.04,NNE,14,5.0,-999.0,47,-99.99,,,-99.99,,2013-07-01 00:42:00,
2013-06-30 19:52:00,79.0,57.0,30.04,NE,40,2.0,-999.0,47,-99.99,,,-99.99,,2013-07-01 00:52:00,
2013-06-30 20:01:00,77.0,57.0,30.04,NNE,26,3.0,-999.0,50,-99.99,,,-99.99,,2013-07-01 01:01:00,
2013-06-30 20:11:00,75.0,55.0,30.04,NNE,33,3.0,-999.0,50,-99.99,,,-99.99,,2013-07-01 01:11:00,
2013-06-30 20:22:00,75.0,57.0,30.04,NE,42,2.0,-999.0,53,-99.99,,,-99.99,,2013-07-01 01:22:00,
2013-06-30 20:33:00,75.0,57.0,30.05,NNE,19,2.0,-999.0,53,-99.99,,,-99.99,,2013-07-01 01:33:00,
2013-06-30 20:42:00,75.0,57.0,30.05,NE,47,1.0,-999.0,53,-99.99,,,-99.99,,2013-07-01 01:42:00,
2013-06-30 20:52:00,73.0,57.0,30.05,NNE,28,2.0,-999.0,56,-99.99,,,-99.99,,2013-07-01 01:52:00,
2013-06-30 21:02:00,73.0,57.0,30.05,NE,44,2.0,-999.0,56,-99.99,,,-99.99,,2013-07-01 02:02:00,
2013-06-30 21:11:00,73.0,57.0,30.06,NNE,12,2.0,-999.0,56,-99.99,,,-99.99,,2013-07-01 02:11:00,
2013-06-30 21:22:00,73.0,57.0,30.06,NNE,21,1.0,-999.0,56,-99.99,,,-99.99,,2013-07-01 02:22:00,
2013-06-30 21:33:00,73.0,57.0,30.07,NNE,30,2.0,-999.0,56,-99.99,,,-99.99,,2013-07-01 02:33:00,
2013-06-30 21:43:00,73.0,57.0,30.07,NNE,15,3.0,-999.0,56,-99.99,,,-99.99,,2013-07-01 02:43:00,
2013-06-30 21:53:00,73.0,57.0,30.08,North,354,3.0,-999.0,56,-99.99,,,-99.99,,2013-07-01 02:53:00,
2013-06-30 22:01:00,72.0,55.0,30.08,NNE,23,1.0,-999.0,56,-99.99,,,-99.99,,2013-07-01 03:01:00,
2013-06-30 22:11:00,72.0,55.0,30.09,North,10,2.0,-999.0,56,-99.99,,,-99.99,,2013-07-01 03:11:00,
2013-06-30 22:23:00,72.0,55.0,30.09,North,359,2.0,-999.0,56,-99.99,,,-99.99,,2013-07-01 03:23:00,
2013-06-30 22:33:00,72.0,55.0,30.10,North,358,2.0,-999.0,56,-99.99,,,-99.99,,2013-07-01 03:33:00,
2013-06-30 22:43:00,72.0,57.0,30.10,NNE,12,2.0,-999.0,60,-99.99,,,-99.99,,2013-07-01 03:43:00,
2013-06-30 22:52:00,72.0,57.0,30.09,NNE,20,3.0,-999.0,60,-99.99,,,-99.99,,2013-07-01 03:52:00,
2013-06-30 23:01:00,72.0,57.0,30.10,North,8,5.0,-999.0,60,-99.99,,,-99.99,,2013-07-01 04:01:00,
2013-06-30 23:11:00,72.0,57.0,30.10,NNE,32,5.0,-999.0,60,-99.99,,,-99.99,,2013-07-01 04:11:00,
2013-06-30 23:22:00,72.0,57.0,30.10,NNE,12,3.0,-999.0,60,-99.99,,,-99.99,,2013-07-01 04:22:00,
2013-06-30 23:32:00,72.0,57.0,30.10,NE,34,3.0,-999.0,60,-99.99,,,-99.99,,2013-07-01 04:32:00,
2013-06-30 23:43:00,72.0,57.0,30.10,NNE,30,5.0,-999.0,60,-99.99,,,-99.99,,2013-07-01 04:43:00,
2013-06-30 23:53:00,70.0,57.0,30.10,NNE,19,3.0,-999.0,64,-99.99,,,-99.99,,2013-07-01 04:53:00,